Location: Peebles
(55.6412°N, 3.1714°W)
Time: 21:54:16
(UTC+00:00)

FENGYUN 1C DEB - Pass Details

Date: 07 February 2023
Orbit: 707 x 862 km, 98.5° (Epoch: 07 November)

Event Time Altitude Azimuth Distance (km) Brightness Sun altitude
Rises 20:45:53 0° 204° (SSW) 3,392 ? -31.8°
Reaches altitude 10° 20:48:42 10° 218° (SW) 2,471 ? -32.2°
Maximum altitude 20:53:05 24° 271° (W) 1,697 ? -32.7°
Drops below altitude 10° 20:57:31 10° 324° (NW) 2,484 ? -33.3°
Sets 21:00:22 0° 338° (NNW) 3,415 ? -33.7°
